Weather History for KTBN - December, 2012

Change the Weather History Date:

Saturday, December 1, 2012

  Actual Average (KVIH) Record (KVIH)
Temperature  
Mean Temperature 58 °F 38 °F  
Max Temperature 67 °F 48 °F 75 °F (1904)
Min Temperature 49 °F 29 °F 12 °F (2002)
Degree Days  
Heating Degree Days 7 27  
Month to date heating degree days 27  
Since 1 July heating degree days 974  
Cooling Degree Days 0 0  
Month to date cooling degree days 0  
Year to date cooling degree days 1246  
Growing Degree Days 8 (Base 50)    
Moisture  
Dew Point 54 °F    
Average Humidity 86    
Maximum Humidity 100    
Minimum Humidity 69    
Precipitation  
Precipitation 0.00 in 0.10 in 0.46 in (1968)
Month to date precipitation 0.10  
Year to date precipitation 41.07  
Sea Level Pressure  
Sea Level Pressure 30.00 in    
Wind  
Wind Speed 9 mph (SSE)    
Max Wind Speed 17 mph    
Max Gust Speed 25 mph    
Visibility 10 miles    
Events      
T = Trace of Precipitation, MM = Missing Value Source: NWS Daily Summary

Daily Weather History Graph

Daily Weather History Graph

Search for Another Location

Airport or City:

Trip Planner

Search our weather history database for the weather conditions in past years. The results will help you decide how hot, cold, wet, or windy it might be!

Date:

Astronomy

Dec. 01, 2012 Rise Set
Actual Time 7:05 AM CST 4:49 PM CST
Civil Twilight 6:36 AM CST 5:18 PM CST
Nautical Twilight 6:04 AM CST 5:51 PM CST
Astronomical Twilight 5:32 AM CST 6:22 PM CST
Moon 7:39 PM CST (12/1) 9:19 AM CST (12/1)
Length of Visible Light 10h 42m
Length of Day
9h 44m
Waning Gibbous, 91% of the Moon is Illuminated
Dec 1
Waning Gibbous
Dec 6
Last Quarter
Dec 13
New
Dec 19
First Quarter
Dec 28
Full

Hourly Weather History & Observations

Time (CST) Temp. Dew Point Humidity Pressure Visibility Wind Dir Wind Speed Gust Speed Precip Events Conditions
12:42 AM 50.0 °F 48.2 °F 94% 30.08 in 10.0 mi South 5.8 mph - N/A   Mostly Cloudy
12:55 AM 50.2 °F 48.9 °F 95% 30.08 in 10.0 mi South 5.8 mph - N/A   Mostly Cloudy
1:22 AM 51.8 °F 51.8 °F 100% 30.08 in 10.0 mi South 4.6 mph - N/A   Overcast
1:55 AM 52.7 °F 51.3 °F 95% 30.08 in 10.0 mi SE 6.9 mph - N/A   Overcast
2:52 AM 50.0 °F 48.2 °F 94% 30.08 in 10.0 mi SE 6.9 mph - N/A   Scattered Clouds
2:55 AM 49.1 °F 48.9 °F 99% 30.08 in 10.0 mi ESE 6.9 mph - N/A   Scattered Clouds
3:34 AM 50.0 °F 50.0 °F 100% 30.08 in 10.0 mi SE 6.9 mph - N/A   Mostly Cloudy
3:55 AM 50.9 °F 50.9 °F 100% 30.07 in 10.0 mi SE 6.9 mph - N/A   Overcast
4:23 AM 50.0 °F 50.0 °F 100% 30.06 in 10.0 mi SE 8.1 mph - N/A   Mostly Cloudy
4:55 AM 50.4 °F 50.2 °F 99% 30.06 in 10.0 mi SE 9.2 mph - N/A   Scattered Clouds
5:55 AM 51.4 °F 50.9 °F 98% 30.05 in 10.0 mi SE 11.5 mph - N/A   Scattered Clouds
6:55 AM 50.9 °F 50.7 °F 99% 30.05 in 10.0 mi SSE 11.5 mph - N/A   Clear
7:55 AM 53.1 °F 52.0 °F 96% 30.04 in 10.0 mi SSE 15.0 mph 19.6 mph N/A   Clear
8:55 AM 55.8 °F 53.1 °F 91% 30.03 in 10.0 mi SSE 13.8 mph 19.6 mph N/A   Clear
9:55 AM 60.1 °F 54.7 °F 82% 30.04 in 10.0 mi South 12.7 mph 20.7 mph N/A   Partly Cloudy
10:02 AM 60.8 °F 55.4 °F 82% 30.04 in 10.0 mi South 11.5 mph 20.7 mph N/A   Mostly Cloudy
10:55 AM 62.1 °F 56.1 °F 81% 30.01 in 10.0 mi South 15.0 mph 23.0 mph N/A   Overcast
11:55 AM 62.2 °F 56.3 °F 81% 29.99 in 10.0 mi South 16.1 mph 24.2 mph N/A   Overcast
12:41 PM 64.4 °F 57.2 °F 77% 29.96 in 10.0 mi South 12.7 mph 20.7 mph N/A   Mostly Cloudy
12:55 PM 63.9 °F 56.7 °F 77% 29.96 in 10.0 mi South 11.5 mph 19.6 mph N/A   Mostly Cloudy
1:55 PM 65.5 °F 56.7 °F 73% 29.92 in 10.0 mi South 17.3 mph 25.3 mph N/A   Overcast
2:15 PM 66.2 °F 57.2 °F 73% 29.91 in 10.0 mi South 13.8 mph 25.3 mph N/A   Mostly Cloudy
2:55 PM 67.6 °F 57.2 °F 69% 29.91 in 10.0 mi South 13.8 mph 21.9 mph N/A   Mostly Cloudy
3:55 PM 67.1 °F 56.5 °F 69% 29.91 in 10.0 mi South 13.8 mph 24.2 mph N/A   Scattered Clouds
4:55 PM 65.3 °F 56.7 °F 74% 29.91 in 10.0 mi South 12.7 mph 23.0 mph N/A   Clear
5:55 PM 64.0 °F 57.0 °F 78% 29.91 in 10.0 mi South 12.7 mph 20.7 mph N/A   Clear
6:55 PM 64.8 °F 57.6 °F 77% 29.94 in 10.0 mi South 9.2 mph 17.3 mph N/A   Overcast
7:55 PM 63.5 °F 57.0 °F 79% 29.93 in 10.0 mi SSE 13.8 mph - N/A   Overcast
8:55 PM 63.1 °F 56.3 °F 78% 29.94 in 10.0 mi South 12.7 mph - N/A   Overcast
9:55 PM 63.7 °F 57.0 °F 79% 29.93 in 10.0 mi South 12.7 mph 20.7 mph N/A   Mostly Cloudy
10:55 PM 63.3 °F 57.2 °F 80% 29.94 in 10.0 mi South 10.4 mph - N/A   Overcast
11:55 PM 63.1 °F 57.7 °F 83% 29.94 in 10.0 mi South 9.2 mph - N/A   Overcast